Tracking 33744 objects as of 12-Apr-2026
HD Live streaming from Space Station
objects crossing your sky now

STARLINK-31950

Track STARLINK-31950 now!
10-day predictions
STARLINK-31950 is classified as:


NORAD ID: 59863
Int'l Code: 2024-098F
Perigee: 489.4 km
Apogee: 491.0 km
Inclination: 43.0 °
Period: 94.3 minutes
Semi major axis: 6861 km
RCS: Unknown
Launch date: May 24, 2024
Source: United States (US)
Launch site: AIR FORCE EASTERN TEST RANGE (AFETR)
Your satellite tracking list
Your tracking list is empty




NASA's NSSDC Master Catalog

Two Line Element Set (TLE):
1 59863U 24098F   26101.96178870  .00001078  00000-0  48699-4 0  9996
2 59863  43.0030  90.1809 0001140 266.0040  94.0681 15.27575982106932
Source of the keplerian elements: AFSPC